Torna al catalogo

OPS 4682 DEB

AttivoPO
NORAD 51493·DEBRIS·🇺🇸 United States

Lanciato Apr 3, 1965 da Vandenberg Space Force Base

Loading…

Prossimi Passaggi (prossime 24 ore)

TLE

AggiornatoSource: Space-Track

Epoca: Sep 11, 2026, 13:36 UTC

1 51493U 65027GD  26254.56702356  .00000263  00000-0  90219-3 0  9990
2 51493  90.2516  13.2416 0026384 317.1002  42.8060 12.95770886417826

Traccia OPS 4682 DEB in tempo reale con AllMySat

Download on the App Store